N1ZLE Weather Reports


Display with metric or nautical units.
time (UTC)temp
F
wind
direction
speed
MPH
gust
MPH
rain 1hr
in
rain 24hr
in
rain mn
in
humidity
%
barometer
mb
20210723190545 75 136 1.0 7.0 0.00 0.00 0.00 48 1020.5
20210723190141 75 290 0.0 3.0 0.00 0.00 0.00 49 1020.4
20210723185608 74 32 0.0 2.0 0.00 0.00 0.00 50 1020.4
20210723185059 74 15 0.0 1.0 0.00 0.00 0.00 49 1020.3
20210723184633 75 55 0.0 3.0 0.00 0.00 0.00 48 1020.4
20210723184053 74 92 0.0 3.0 0.00 0.00 0.00 50 1020.4
20210723183542 75 266 0.0 1.0 0.00 0.00 0.00 51 1020.4
20210723183206 74 266 0.0 1.0 0.00 0.00 0.00 57 1020.6
20210723182541 73 252 0.0 0.0 0.00 0.00 0.00 56 1020.7
20210723182041 74 317 0.0 3.0 0.00 0.00 0.00 53 1020.7
20210723181559 75 39 0.0 3.0 0.00 0.00 0.00 53 1020.7
20210723181041 75 316 0.0 8.0 0.00 0.00 0.00 55 1020.7
20210723180600 74 274 1.0 8.0 0.00 0.00 0.00 54 1020.6
20210723180112 74 300 0.0 3.0 0.00 0.00 0.00 56 1020.8
20210723175626 73 288 0.0 3.0 0.00 0.00 0.00 57 1020.8
20210723175041 73 270 0.0 3.0 0.00 0.00 0.00 57 1020.8
20210723174703 73 242 0.0 3.0 0.00 0.00 0.00 59 1020.8
20210723174040 73 232 0.0 3.0 0.00 0.00 0.00 57 1020.9
20210723173556 74 295 0.0 3.0 0.00 0.00 0.00 56 1020.9
20210723173047 74 36 0.0 2.0 0.00 0.00 0.00 52 1020.8
20210723172545 75 287 0.0 1.0 0.00 0.00 0.00 52 1020.9
20210723172039 74 259 0.0 2.0 0.00 0.00 0.00 54 1021.0
20210723171717 72 265 0.0 5.0 0.00 0.00 0.00 57 1021.1
20210723171039 74 288 1.0 5.0 0.00 0.00 0.00 56 1021.0
20210723170540 75 254 0.0 4.0 0.00 0.00 0.00 53 1021.0
20210723170119 73 271 0.0 6.0 0.00 0.00 0.00 56 1021.0
20210723165544 74 300 0.0 3.0 0.00 0.00 0.00 56 1021.1
20210723165039 75 211 0.0 6.0 0.00 0.00 0.00 50 1021.1
20210723164548 76 252 0.0 6.0 0.00 0.00 0.00 52 1021.2
20210723164038 75 266 0.0 6.0 0.00 0.00 0.00 51 1021.2
20210723163537 73 225 0.0 3.0 0.00 0.00 0.00 53 1021.2
20210723163155 74 244 0.0 4.0 0.00 0.00 0.00 55 1021.3
20210723162537 74 275 0.0 4.0 0.00 0.00 0.00 54 1021.2
20210723162036 75 336 0.0 11.0 0.00 0.00 0.00 53 1021.4
20210723161631 76 232 0.0 4.0 0.00 0.00 0.00 51 1021.3
20210723161042 75 302 0.0 6.0 0.00 0.00 0.00 51 1021.3
20210723160540 74 279 1.0 6.0 0.00 0.00 0.00 57 1021.3
20210723160120 73 286 0.0 5.0 0.00 0.00 0.00 59 1021.5
20210723155534 72 277 1.0 5.0 0.00 0.00 0.00 60 1021.5
20210723155034 73 284 0.0 0.0 0.00 0.00 0.00 62 1021.5
20210723154706 72 284 0.0 0.0 0.00 0.00 0.00 61 1021.6
20210723154038 71 278 0.0 0.0 0.00 0.00 0.00 66 1021.7
20210723153532 72 278 0.0 0.0 0.00 0.00 0.00 61 1021.6
20210723153120 72 278 0.0 5.0 0.00 0.00 0.00 61 1021.7
20210723152531 72 298 0.0 5.0 0.00 0.00 0.00 59 1021.6
20210723152033 73 239 0.0 4.0 0.00 0.00 0.00 60 1021.6
20210723151550 73 222 0.0 0.0 0.00 0.00 0.00 56 1021.6
20210723151040 74 108 0.0 0.0 0.00 0.00 0.00 55 1021.6
20210723150536 75 288 0.0 0.0 0.00 0.00 0.00 54 1021.6
20210723150057 74 28 0.0 3.0 0.00 0.00 0.00 55 1021.6
20210723145537 73 40 0.0 3.0 0.00 0.00 0.00 58 1021.7
20210723145038 73 360 0.0 3.0 0.00 0.00 0.00 58 1021.8
20210723144526 73 26 0.0 3.0 0.00 0.00 0.00 59 1021.6
20210723144037 73 34 0.0 3.0 0.00 0.00 0.00 56 1021.7
20210723143522 73 257 0.0 0.0 0.00 0.00 0.00 58 1021.7
20210723143109 73 355 0.0 0.0 0.00 0.00 0.00 57 1021.8
20210723142520 73 244 0.0 4.0 0.00 0.00 0.00 58 1021.8
20210723142042 74 263 0.0 6.0 0.00 0.00 0.00 57 1021.9
20210723141542 73 264 0.0 6.0 0.00 0.00 0.00 58 1021.8
20210723141015 72 58 0.0 5.0 0.00 0.00 0.00 59 1021.8
20210723140514 71 232 0.0 5.0 0.00 0.00 0.00 61 1021.9
20210723140030 71 88 0.0 5.0 0.00 0.00 0.00 63 1021.8
20210723135520 71 329 0.0 5.0 0.00 0.00 0.00 62 1021.8
20210723135011 71 221 0.0 4.0 0.00 0.00 0.00 61 1021.9
20210723134515 71 266 0.0 6.0 0.00 0.00 0.00 62 1021.9
20210723134007 71 274 0.0 6.0 0.00 0.00 0.00 64 1021.8
20210723133505 71 283 0.0 4.0 0.00 0.00 0.00 62 1021.9
20210723133006 70 273 0.0 2.0 0.00 0.00 0.00 63 1022.0
20210723132503 70 290 0.0 6.0 0.00 0.00 0.00 63 1021.9
20210723132006 69 285 0.0 6.0 0.00 0.00 0.00 66 1022.0
20210723131618 69 342 1.0 7.0 0.00 0.00 0.00 66 1021.9
20210723131059 70 280 0.0 3.0 0.00 0.00 0.00 67 1021.9
20210723130558 69 22 0.0 0.0 0.00 0.00 0.00 71 1021.9
20210723130417 69 298 0.0 3.0 0.00 0.00 0.00 71 1022.0
20210723125611 68 265 0.0 3.0 0.00 0.00 0.00 72 1022.0
20210723125055 69 288 0.0 2.0 0.00 0.00 0.00 70 1022.0
20210723124643 68 32 0.0 1.0 0.00 0.00 0.00 70 1021.9
20210723124053 69 242 0.0 1.0 0.00 0.00 0.00 70 1021.8
20210723123551 68 298 0.0 2.0 0.00 0.00 0.00 70 1021.8
20210723123138 67 246 0.0 5.0 0.00 0.00 0.00 71 1021.7
20210723122552 67 236 1.0 6.0 0.00 0.00 0.00 72 1021.7
20210723122107 67 301 0.0 5.0 0.00 0.00 0.00 72 1021.7
20210723121639 67 276 0.0 5.0 0.00 0.00 0.00 73 1021.7
20210723121045 67 244 0.0 7.0 0.00 0.00 0.00 74 1021.8
20210723120552 66 246 1.0 7.0 0.00 0.00 0.00 75 1021.7
20210723120120 66 280 0.0 6.0 0.00 0.00 0.00 74 1021.6
20210723115544 66 269 0.0 8.0 0.00 0.00 0.00 74 1021.8
20210723115059 66 321 0.0 8.0 0.00 0.00 0.00 75 1021.7
20210723114619 65 268 0.0 8.0 0.00 0.00 0.00 76 1021.6
20210723114039 64 256 1.0 9.0 0.00 0.00 0.00 77 1021.5
20210723113536 64 247 0.0 9.0 0.00 0.00 0.00 78 1021.5
20210723113113 63 319 0.0 7.0 0.00 0.00 0.00 80 1021.5
20210723112534 62 267 0.0 7.0 0.00 0.00 0.00 80 1021.5
20210723112036 62 259 0.0 5.0 0.00 0.00 0.00 82 1021.5
20210723111605 61 277 0.0 5.0 0.00 0.00 0.00 83 1021.4
20210723111032 61 222 0.0 5.0 0.00 0.00 0.00 83 1021.5
20210723110530 61 283 0.0 5.0 0.00 0.00 0.00 83 1021.5
20210723110044 60 360 0.0 5.0 0.00 0.00 0.00 83 1021.4
20210723105527 60 360 0.0 4.0 0.00 0.00 0.00 83 1021.4
20210723105027 60 360 0.0 4.0 0.00 0.00 0.00 83 1021.3
20210723104553 60 252 0.0 2.0 0.00 0.00 0.00 85 1021.2
20210723104026 60 232 0.0 2.0 0.00 0.00 0.00 84 1021.2
20210723103525 60 360 0.0 2.0 0.00 0.00 0.00 84 1021.2
20210723103105 60 255 0.0 3.0 0.00 0.00 0.00 84 1021.1
20210723102523 60 360 0.0 3.0 0.00 0.00 0.00 84 1021.1
20210723102031 59 360 0.0 0.0 0.00 0.00 0.00 84 1021.0
20210723101630 59 360 0.0 0.0 0.00 0.00 0.00 84 1021.0
20210723101031 59 360 0.0 0.0 0.00 0.00 0.00 84 1021.0
20210723100521 59 360 0.0 3.0 0.00 0.00 0.00 84 1020.8
20210723100030 59 360 0.0 3.0 0.00 0.00 0.00 83 1021.0
20210723095535 59 360 0.0 3.0 0.00 0.00 0.00 86 1020.7
20210723095020 59 360 0.0 3.0 0.00 0.00 0.00 84 1020.7
20210723094522 59 360 0.0 1.0 0.00 0.00 0.00 85 1020.6
20210723094017 59 360 0.0 1.0 0.00 0.00 0.00 85 1020.6
20210723093517 59 360 0.0 0.0 0.00 0.00 0.00 84 1020.7
20210723093020 59 360 0.0 0.0 0.00 0.00 0.00 85 1020.6
20210723092516 59 360 0.0 2.0 0.00 0.00 0.00 84 1020.5
20210723092015 60 360 0.0 2.0 0.00 0.00 0.00 84 1020.6
20210723091516 60 360 0.0 1.0 0.00 0.00 0.00 84 1020.5
20210723091017 60 360 0.0 3.0 0.00 0.00 0.00 83 1020.5
20210723090530 60 360 0.0 3.0 0.00 0.00 0.00 82 1020.5
20210723090021 60 360 0.0 4.0 0.00 0.00 0.00 83 1020.4
20210723085514 60 360 0.0 5.0 0.00 0.00 0.00 83 1020.4
20210723085013 60 360 0.0 3.0 0.00 0.00 0.00 82 1020.4
20210723084526 60 243 0.0 4.0 0.00 0.00 0.00 83 1020.3
20210723084017 60 269 0.0 4.0 0.00 0.00 0.00 82 1020.3
20210723083513 60 360 0.0 3.0 0.00 0.00 0.00 82 1020.4
20210723083039 60 360 0.0 1.0 0.00 0.00 0.00 82 1020.3
20210723082512 60 360 0.0 0.0 0.00 0.00 0.00 82 1020.3
20210723082016 60 360 0.0 3.0 0.00 0.00 0.00 81 1020.2
20210723081511 60 271 0.0 4.0 0.00 0.00 0.00 81 1020.2
20210723081013 60 269 0.0 0.0 0.00 0.00 0.00 80 1020.2
20210723080509 61 269 0.0 4.0 0.00 0.00 0.00 80 1020.1
20210723080101 61 360 0.0 4.0 0.00 0.00 0.00 80 1020.0
20210723075509 61 360 0.0 3.0 0.00 0.00 0.00 79 1020.1
20210723075010 61 238 0.0 3.0 0.00 0.00 0.00 78 1020.2
20210723074511 61 360 0.0 1.0 0.00 0.00 0.00 79 1020.1
20210723074008 61 267 0.0 2.0 0.00 0.00 0.00 78 1020.2
20210723073507 61 299 0.0 3.0 0.00 0.00 0.00 79 1020.2
20210723073014 61 252 0.0 4.0 0.00 0.00 0.00 79 1020.1
20210723072506 61 360 0.0 4.0 0.00 0.00 0.00 80 1020.1
20210723072006 61 280 0.0 0.0 0.00 0.00 0.00 81 1020.3
20210723071533 61 279 0.0 1.0 0.00 0.00 0.00 81 1020.3
20210723071006 61 280 0.0 2.0 0.00 0.00 0.00 80 1020.2
20210723070506 61 254 0.0 1.0 0.00 0.00 0.00 80 1020.3
20210723070007 61 261 0.0 6.0 0.00 0.00 0.00 79 1020.3
20210723065505 61 277 0.0 6.0 0.00 0.00 0.00 79 1020.4
20210723065003 61 263 0.0 4.0 0.00 0.00 0.00 78 1020.5
20210723064508 61 249 0.0 2.0 0.00 0.00 0.00 78 1020.6
20210723064002 61 267 0.0 2.0 0.00 0.00 0.00 79 1020.6
20210723063501 61 280 0.0 7.0 0.00 0.00 0.00 79 1020.6
20210723063002 61 224 0.0 7.0 0.00 0.00 0.00 79 1020.6
20210723062609 61 221 0.0 6.0 0.00 0.00 0.00 80 1020.6
20210723062059 61 279 0.0 1.0 0.00 0.00 0.00 78 1020.7
20210723061646 62 279 0.0 6.0 0.00 0.00 0.00 77 1020.8
20210723061058 62 248 0.0 7.0 0.00 0.00 0.00 78 1020.9
20210723060557 62 260 0.0 7.0 0.00 0.00 0.00 79 1020.9
20210723060128 62 275 0.0 2.0 0.00 0.00 0.00 79 1020.9
20210723055558 62 279 0.0 2.0 0.00 0.00 0.00 77 1020.9
20210723055058 62 266 0.0 2.0 0.00 0.00 0.00 77 1020.9
20210723054730 62 229 0.0 9.0 0.00 0.00 0.00 78 1020.9
20210723054056 62 275 1.0 9.0 0.00 0.00 0.00 79 1021.0
20210723053556 62 276 0.0 3.0 0.00 0.00 0.00 78 1020.9
20210723053229 62 278 0.0 3.0 0.00 0.00 0.00 77 1021.0
20210723052555 62 284 0.0 3.0 0.00 0.00 0.00 77 1021.0
20210723052101 62 264 0.0 3.0 0.00 0.00 0.00 78 1021.0
20210723051706 62 273 0.0 0.0 0.00 0.00 0.00 77 1021.0
20210723051053 62 273 0.0 3.0 0.00 0.00 0.00 77 1021.0
20210723050609 62 273 0.0 3.0 0.00 0.00 0.00 75 1021.1
20210723050119 62 250 0.0 5.0 0.00 0.00 0.00 75 1021.2
20210723045553 62 272 0.0 5.0 0.00 0.00 0.00 76 1021.2
20210723045052 62 250 0.0 1.0 0.00 0.00 0.00 76 1021.2
20210723044709 62 248 0.0 4.0 0.00 0.00 0.00 74 1021.2
20210723044052 62 282 0.0 4.0 0.00 0.00 0.00 75 1021.2
20210723043550 62 267 0.0 4.0 0.00 0.00 0.00 74 1021.2
20210723043147 62 267 0.0 3.0 0.00 0.00 0.00 76 1021.1
20210723042606 62 268 0.0 3.0 0.00 0.00 0.00 77 1021.1
20210723042049 63 265 0.0 0.0 0.00 0.00 0.00 75 1021.1
20210723041722 63 267 0.0 3.0 0.00 0.00 0.00 76 1021.0
20210723041052 63 278 0.0 0.0 0.00 0.00 0.00 73 1021.0
20210723040602 63 288 0.0 0.0 0.00 0.00 0.00 74 1021.1
20210723040059 63 287 0.0 2.0 0.00 0.00 0.00 76 1021.0
20210723035604 64 287 0.0 2.0 0.00 0.00 0.00 75 1021.0
20210723035049 64 280 0.0 4.0 0.00 0.00 0.00 72 1021.0
20210723034622 64 261 0.0 4.0 0.00 0.00 0.00 70 1021.1
20210723034059 64 278 0.0 3.0 0.00 0.00 0.00 70 1021.0
20210723033610 64 266 0.0 2.0 0.00 0.00 0.00 71 1021.0
20210723033120 65 216 0.0 2.0 0.00 0.00 0.00 71 1020.9
20210723032543 65 271 0.0 0.0 0.00 0.00 0.00 71 1021.0
20210723032047 65 271 0.0 4.0 0.00 0.00 0.00 71 1020.8
20210723031614 65 271 0.0 4.0 0.00 0.00 0.00 70 1020.8
20210723031044 65 340 0.0 3.0 0.00 0.00 0.00 69 1020.8
20210723030603 65 263 0.0 3.0 0.00 0.00 0.00 70 1020.9
20210723030101 65 284 0.0 2.0 0.00 0.00 0.00 71 1021.0
20210723025543 65 248 0.0 2.0 0.00 0.00 0.00 71 1021.0
20210723025049 65 237 0.0 2.0 0.00 0.00 0.00 68 1020.9
20210723024733 66 232 0.0 2.0 0.00 0.00 0.00 68 1020.9
20210723024045 66 275 0.0 2.0 0.00 0.00 0.00 68 1020.8
20210723023540 66 238 0.0 2.0 0.00 0.00 0.00 67 1020.8
20210723023120 66 273 0.0 2.0 0.00 0.00 0.00 66 1020.8
20210723022545 66 262 0.0 3.0 0.00 0.00 0.00 67 1020.8
20210723022040 66 296 0.0 3.0 0.00 0.00 0.00 66 1020.8
20210723021807 66 278 0.0 8.0 0.00 0.00 0.00 66 1020.7
20210723021054 66 264 0.0 3.0 0.00 0.00 0.00 66 1020.7
20210723020540 66 286 0.0 4.0 0.00 0.00 0.00 66 1020.7
20210723020103 66 261 0.0 5.0 0.00 0.00 0.00 65 1020.7
20210723015540 66 274 1.0 5.0 0.00 0.00 0.00 65 1020.7
20210723015039 66 295 0.0 2.0 0.00 0.00 0.00 66 1020.6
20210723014644 66 300 0.0 3.0 0.00 0.00 0.00 66 1020.6
20210723014049 66 256 0.0 5.0 0.00 0.00 0.00 67 1020.6
20210723013537 66 261 0.0 5.0 0.00 0.00 0.00 67 1020.6
20210723013222 67 273 0.0 3.0 0.00 0.00 0.00 68 1020.5
20210723012537 67 271 0.0 3.0 0.00 0.00 0.00 66 1020.4
20210723012036 67 270 0.0 0.0 0.00 0.00 0.00 65 1020.4
20210723011604 67 237 0.0 1.0 0.00 0.00 0.00 66 1020.4
20210723011036 67 277 0.0 2.0 0.00 0.00 0.00 67 1020.4
20210723010540 67 254 0.0 3.0 0.00 0.00 0.00 67 1020.2
20210723010118 66 279 0.0 3.0 0.00 0.00 0.00 68 1020.1
20210723005544 66 264 0.0 4.0 0.00 0.00 0.00 71 1020.1
20210723005034 66 270 0.0 4.0 0.00 0.00 0.00 72 1020.0
20210723004613 66 277 0.0 0.0 0.00 0.00 0.00 70 1020.0
20210723004036 66 275 0.0 0.0 0.00 0.00 0.00 69 1019.9
20210723003535 66 275 0.0 0.0 0.00 0.00 0.00 71 1019.9
20210723003123 66 275 0.0 0.0 0.00 0.00 0.00 71 1019.8
20210723002531 66 275 0.0 0.0 0.00 0.00 0.00 72 1019.8
20210723002043 66 275 0.0 0.0 0.00 0.00 0.00 74 1019.8
20210723001608 66 274 0.0 0.0 0.00 0.00 0.00 73 1019.8
20210723001031 66 275 0.0 0.0 0.00 0.00 0.00 73 1019.8
20210723000536 66 275 0.0 0.0 0.00 0.00 0.00 70 1019.8
20210723000204 67 275 0.0 0.0 0.00 0.00 0.00 70 1019.9
20210723000004 67 275 0.0 0.0 0.00 0.00 0.00 69 1020.0
20210722235537 67 275 0.0 0.0 0.00 0.00 0.00 71 1019.9
20210722235030 67 277 0.0 0.0 0.00 0.00 0.00 67 1019.9
20210722234612 67 277 0.0 0.0 0.00 0.00 0.00 67 1019.8
20210722234029 68 295 0.0 0.0 0.00 0.00 0.00 65 1019.6
20210722233528 68 295 0.0 0.0 0.00 0.00 0.00 65 1019.7
20210722233044 69 286 0.0 0.0 0.00 0.00 0.00 65 1019.7
20210722232528 69 285 0.0 4.0 0.00 0.00 0.00 63 1019.7
20210722232042 69 297 0.0 4.0 0.00 0.00 0.00 62 1019.7
20210722231542 69 323 0.0 1.0 0.00 0.00 0.00 63 1019.7
20210722231027 69 275 0.0 5.0 0.00 0.00 0.00 65 1019.6
20210722230550 69 308 0.0 5.0 0.00 0.00 0.00 63 1019.6
20210722230034 69 288 0.0 3.0 0.00 0.00 0.00 63 1019.6
20210722225534 69 260 0.0 5.0 0.00 0.00 0.00 65 1019.5
20210722225025 69 248 0.0 5.0 0.00 0.00 0.00 60 1019.4
20210722224553 69 302 0.0 1.0 0.00 0.00 0.00 61 1019.4
20210722224025 70 300 0.0 5.0 0.00 0.00 0.00 60 1019.4
20210722223525 70 250 0.0 5.0 0.00 0.00 0.00 63 1019.3
20210722223048 71 275 0.0 7.0 0.00 0.00 0.00 58 1019.3
20210722222528 71 240 1.0 7.0 0.00 0.00 0.00 56 1019.2
20210722222032 71 319 0.0 3.0 0.00 0.00 0.00 59 1019.3
20210722221545 71 247 0.0 3.0 0.00 0.00 0.00 58 1019.3
20210722221024 71 254 0.0 4.0 0.00 0.00 0.00 58 1019.2
20210722220534 72 160 0.0 2.0 0.00 0.00 0.00 59 1019.2
20210722220031 72 286 0.0 3.0 0.00 0.00 0.00 59 1019.1
20210722215530 72 308 0.0 3.0 0.00 0.00 0.00 57 1019.2
20210722215027 73 46 0.0 2.0 0.00 0.00 0.00 55 1019.1
20210722214559 73 248 0.0 2.0 0.00 0.00 0.00 56 1019.1
20210722214034 73 290 0.0 7.0 0.00 0.00 0.00 58 1019.2
20210722213522 72 237 0.0 7.0 0.00 0.00 0.00 57 1019.2
20210722213053 72 322 0.0 5.0 0.00 0.00 0.00 59 1019.2
20210722212532 72 331 0.0 5.0 0.00 0.00 0.00 58 1019.1
20210722212027 72 234 0.0 4.0 0.00 0.00 0.00 60 1019.2
20210722211633 72 259 0.0 0.0 0.00 0.00 0.00 60 1019.2
20210722211021 72 288 0.0 0.0 0.00 0.00 0.00 58 1019.2
20210722210536 72 289 0.0 3.0 0.00 0.00 0.00 58 1019.2
20210722210036 72 286 0.0 6.0 0.00 0.00 0.00 57 1019.2
20210722205520 73 280 0.0 6.0 0.00 0.00 0.00 60 1019.2
20210722205032 73 269 0.0 5.0 0.00 0.00 0.00 58 1019.1
20210722204616 73 342 0.0 1.0 0.00 0.00 0.00 60 1019.2
20210722204046 74 291 0.0 0.0 0.00 0.00 0.00 61 1019.1
20210722203518 73 269 0.0 0.0 0.00 0.00 0.00 61 1019.1
20210722203052 72 269 0.0 2.0 0.00 0.00 0.00 60 1019.1
20210722202528 73 273 0.0 3.0 0.00 0.00 0.00 57 1019.1
20210722202017 73 280 0.0 4.0 0.00 0.00 0.00 56 1019.2
20210722201540 73 261 0.0 4.0 0.00 0.00 0.00 54 1019.2
20210722201016 73 257 0.0 3.0 0.00 0.00 0.00 55 1019.2
20210722200518 73 258 0.0 3.0 0.00 0.00 0.00 59 1019.2
20210722200022 73 263 0.0 4.0 0.00 0.00 0.00 58 1019.2
20210722195529 74 261 0.0 4.0 0.00 0.00 0.00 57 1019.1
20210722195016 74 240 0.0 8.0 0.00 0.00 0.00 57 1019.0
20210722194530 75 263 0.0 7.0 0.00 0.00 0.00 53 1019.0
20210722194022 75 284 0.0 5.0 0.00 0.00 0.00 52 1019.0
20210722193608 75 342 0.0 3.0 0.00 0.00 0.00 54 1018.9
20210722193029 75 273 0.0 6.0 0.00 0.00 0.00 54 1018.9
20210722192515 75 257 1.0 6.0 0.00 0.00 0.00 52 1018.9
20210722192026 74 252 1.0 7.0 0.00 0.00 0.00 51 1018.9
20210722191548 74 234 0.0 8.0 0.00 0.00 0.00 52 1018.9
20210722191015 75 330 0.0 8.0 0.00 0.00 0.00 51 1019.0